Regional Weather Roundup
Issued by NWS

Home | Current Version | Previous Version | Text Only | Print | Product List | Glossary Off
Versions: 1 2 3 4 5 6 7 8 9 10 11 12 13 14 15 16 17 18 19 20 21 22 23 24 25 26 27 28 29 30 31 32 33 34 35 36 37 38 39 40 41 42 43 44 45 46 47 48 49 50

000
ASUS45 KCYS 292310
RWRWY

WYOMING REGIONAL WEATHER ROUNDUP
NATIONAL WEATHER SERVICE CHEYENNE WY
400 PM MST THU JAN 29 2015

NOTE:  "FAIR" INDICATES FEW OR NO CLOUDS BELOW 12,000 FEET
WITH NO SIGNIFICANT WEATHER AND/OR OBSTRUCTIONS TO VISIBILITY.

WYZ001-300000-
YELLOWSTONE NATIONAL PARK

CITY           SKY/WX    TMP DP  RH WIND       PRES   REMARKS
LK YELLOWSTONE   N/A     23  15  71 CALM      30.36S
W YELLOWSTONE  NOT AVBL

$$
WYZ002>013-054>058-071-098>099-300000-
NORTHERN WYOMING

CITY           SKY/WX    TMP DP  RH WIND       PRES   REMARKS
JACKSON        SUNNY     30  25  80 CALM      30.35F
CODY           FAIR      43  30  61 SE12      30.28S
GREYBULL       FOG       33  32  96 N5        30.32F VSB<1/4 WCI  29
WORLAND        FAIR      38  31  76 SE10      30.31F WCI  31
SHERIDAN       FAIR      47  24  40 SE10      30.28F
BUFFALO        FAIR      45  28  51 SE7       30.29F
GILLETTE       FAIR      46  24  42 S10       30.32S
HULETT           N/A    N/A N/A N/A MISG        N/A
NEWCASTLE      FAIR      41  19  42 W3        30.37F

$$
WYZ014>020-022>026-101>103-300000-
CENTRAL WYOMING

CITY           SKY/WX    TMP DP  RH WIND       PRES   REMARKS
BIG PINEY      FAIR      35  24  64 NE5       30.36F WCI  31
PINEDALE       FAIR      32  25  74 NW3       30.36F
DUBOIS         FAIR      37  16  41 CALM      30.30S
LANDER         FAIR      40  27  59 W5        30.30F
RIVERTON       FAIR      41  30  65 E7        30.32F
CASPER         FAIR      44  26  49 S8        30.33F
DOUGLAS        FAIR      46  23  40 SE6       30.36F

$$
WYZ021-027>030-104>119-300000-
SOUTHERN WYOMING

CITY           SKY/WX    TMP DP  RH WIND       PRES   REMARKS
EVANSTON       CLOUDY    34  28  79 NE8       30.32S WCI  27
KEMMERER       FAIR      36  28  75 NE12      30.33S WCI  27
FORT BRIDGER   FAIR      36  32  87 N6        30.35F WCI  31
ROCK SPRINGS   FAIR      37  28  70 NE6       30.32F WCI  32
DIXON          FAIR      42  31  66 W3        30.35S
RAWLINS        FAIR      42  26  53 NE5       30.33F
SARATOGA       FAIR      43  21  42 CALM      30.33F
LARAMIE        FAIR      36  26  67 SE15      30.34F WCI  27
CHEYENNE       FAIR      41  23  48 S15       30.38S
TORRINGTON     FAIR      47  19  33 SE6       30.38F
PINE BLUFFS    FAIR      45  23  42 S9        30.40S

$$


USA.gov is the U.S. government's official web portal to all federal, state and local government web resources and services.